Weather History for KABQ - July, 2013

Change the Weather History Date:

Friday, July 12, 2013

  Actual Average Record
Temperature  
Mean Temperature 82 °F 79 °F  
Max Temperature 92 °F 91 °F 102 °F (1971)
Min Temperature 71 °F 67 °F 54 °F (1926)
Degree Days  
Heating Degree Days 0 0  
Month to date heating degree days 0 0  
Since 1 June heating degree days 0 4  
Since 1 July heating degree days 0 0  
Cooling Degree Days 17 14  
Month to date cooling degree days 171 164  
Year to date cooling degree days 743 564  
Since 1 June cooling degree days 626 466  
Growing Degree Days 31 (Base 50)    
Moisture  
Dew Point 53 °F    
Average Humidity 43    
Maximum Humidity 61    
Minimum Humidity 24    
Precipitation  
Precipitation T in 0.05 in 1.40 in (1910)
Month to date precipitation 0.99 0.50  
Year to date precipitation 1.69 3.70  
Snow  
Snow 0.00 in - - ()
Month to date snowfall 0.0  
Since 1 June snowfall 0.0  
Since 1 July snowfall 0.0  
Snow Depth 0.00 in    
Sea Level Pressure  
Sea Level Pressure 29.90 in    
Wind  
Wind Speed 8 mph (WSW)    
Max Wind Speed 26 mph    
Max Gust Speed 36 mph    
Visibility 10 miles    
Events Thunderstorm    
T = Trace of Precipitation, MM = Missing Value Source: NWS Daily Summary

Daily Weather History Graph

Daily Weather History Graph

Search for Another Location

Airport or City:

Trip Planner

Search our weather history database for the weather conditions in past years. The results will help you decide how hot, cold, wet, or windy it might be!

Date:

Astronomy

Jul. 12, 2013 Rise Set
Actual Time 6:02 AM MDT 8:21 PM MDT
Civil Twilight 5:32 AM MDT 8:51 PM MDT
Nautical Twilight 4:57 AM MDT 9:26 PM MDT
Astronomical Twilight 4:17 AM MDT 10:05 PM MDT
Moon 10:09 AM MDT (7/12) 10:46 PM MDT (7/12)
Length of Visible Light 15h 18m
Length of Day
14h 19m
Waxing Crescent, 18% of the Moon is Illuminated
Jul 12
Waxing Crescent
Jul 15
First Quarter
Jul 22
Full
Jul 29
Last Quarter
Aug 6
New

Hourly Weather History & Observations

Time (MDT) Temp. Heat Index Dew Point Humidity Pressure Visibility Wind Dir Wind Speed Gust Speed Precip Events Conditions
12:52 AM 75.9 °F - 55.9 °F 50% 29.86 in 10.0 mi North 9.2 mph - N/A   Partly Cloudy
1:52 AM 73.0 °F - 57.0 °F 57% 29.85 in 10.0 mi NNW 3.5 mph - N/A   Scattered Clouds
2:52 AM 72.0 °F - 57.9 °F 61% 29.86 in 10.0 mi North 3.5 mph - N/A   Mostly Cloudy
3:52 AM 72.0 °F - 57.9 °F 61% 29.86 in 10.0 mi North 6.9 mph - N/A   Scattered Clouds
4:52 AM 71.1 °F - 55.9 °F 59% 29.87 in 10.0 mi North 6.9 mph - N/A   Scattered Clouds
5:52 AM 71.1 °F - 57.0 °F 61% 29.86 in 10.0 mi Calm Calm - N/A   Scattered Clouds
6:52 AM 72.0 °F - 57.9 °F 61% 29.88 in 10.0 mi ESE 3.5 mph - N/A   Scattered Clouds
7:52 AM 73.0 °F - 59.0 °F 61% 29.90 in 10.0 mi South 6.9 mph - N/A   Scattered Clouds
8:52 AM 73.0 °F - 57.9 °F 59% 29.93 in 10.0 mi SW 6.9 mph - N/A   Scattered Clouds
9:52 AM 78.1 °F - 55.0 °F 45% 29.91 in 10.0 mi South 9.2 mph - N/A   Scattered Clouds
10:52 AM 81.0 °F 81.0 °F 57.0 °F 44% 29.90 in 10.0 mi Variable 4.6 mph - N/A   Scattered Clouds
11:52 AM 84.0 °F 83.0 °F 55.9 °F 38% 29.88 in 10.0 mi WSW 6.9 mph - N/A   Scattered Clouds
12:52 PM 88.0 °F 86.1 °F 55.0 °F 32% 29.85 in 10.0 mi SSW 6.9 mph - N/A   Scattered Clouds
1:52 PM 88.0 °F 85.7 °F 53.1 °F 30% 29.83 in 10.0 mi SSW 13.8 mph - N/A   Scattered Clouds
2:22 PM 87.8 °F - 51.8 °F 29% 30.11 in 10.0 mi SW 11.5 mph 19.6 mph N/A Thunderstorm Thunderstorm
2:35 PM 84.2 °F - 51.8 °F 33% 30.11 in 10.0 mi West 16.1 mph 28.8 mph N/A Thunderstorm Thunderstorm
2:44 PM 84.2 °F - 48.2 °F 29% 30.10 in 10.0 mi WNW 11.5 mph - N/A   Mostly Cloudy
2:52 PM 86.0 °F - 48.9 °F 28% 29.83 in 10.0 mi WNW 9.2 mph - N/A   Mostly Cloudy
3:04 PM 87.8 °F 85.7 °F 53.6 °F 31% 30.10 in 10.0 mi WNW 9.2 mph - N/A Thunderstorm Thunderstorm
3:52 PM 86.0 °F 84.0 °F 53.1 °F 32% 29.82 in 10.0 mi WNW 15.0 mph - N/A Thunderstorm Thunderstorm
4:28 PM 89.6 °F - 46.4 °F 22% 30.08 in 10.0 mi NW 11.5 mph - N/A   Scattered Clouds
4:52 PM 90.0 °F - 48.0 °F 24% 29.79 in 10.0 mi NW 9.2 mph - N/A   Scattered Clouds
5:52 PM 90.0 °F - 48.0 °F 24% 29.78 in 10.0 mi Calm Calm - N/A   Scattered Clouds
6:52 PM 89.1 °F - 50.0 °F 26% 29.78 in 10.0 mi North 18.4 mph - N/A   Scattered Clouds
7:45 PM 87.8 °F - 51.8 °F 29% 30.07 in 10.0 mi East 19.6 mph 23.0 mph N/A Thunderstorm Thunderstorm
7:52 PM 87.1 °F - 51.1 °F 29% 29.80 in 10.0 mi East 18.4 mph 24.2 mph N/A Thunderstorm Thunderstorm
8:02 PM 82.4 °F 81.4 °F 53.6 °F 37% 30.10 in 7.0 mi South 26.5 mph 35.7 mph N/A Thunderstorm Thunderstorm
8:30 PM 82.4 °F 81.4 °F 53.6 °F 37% 30.10 in 10.0 mi South 12.7 mph - N/A   Mostly Cloudy
8:52 PM 82.9 °F - 52.0 °F 34% 29.83 in 10.0 mi South 6.9 mph - N/A   Mostly Cloudy
9:52 PM 80.1 °F - 51.1 °F 36% 29.85 in 10.0 mi South 11.5 mph - 0.00 in   Mostly Cloudy
10:52 PM 80.1 °F - 50.0 °F 35% 29.86 in 10.0 mi WSW 4.6 mph - N/A   Scattered Clouds
11:52 PM 79.0 °F - 53.1 °F 40% 29.88 in 10.0 mi Calm Calm - N/A   Scattered Clouds